This demonstration page uses our WeatherBlox Daily Observations layout. Learn more.

Left ArrowRight Arrow

34.02893, -84.19858

Hourly Observations for March 16, 2022

Temp ( °F °C ) Dew Point ( °F °C ) Humidity (%) Winds ( mph kmh ) Pressure ( in mb ) Visibility ( mi km ) Precip ( " mm )
12:10 am 00:10 Cloudy with Light Rain 55 12.8 54 12.2 96 96 VRB 7 11 30.09 1019 5 8 0.02 0.51
12:38 am 00:38 Cloudy with Light Rain 55 12.8 54 12.2 96 96 VRB 5 7 30.09 1019 9 14 0.03 0.76
12:53 am 00:53 Cloudy with Light Rain 55 12.8 54 12.2 96 96 VRB 3 6 30.06 1018 6 10 0.04 1.02
1:14 am 01:14 Cloudy 55 12.8 54 12.2 96 96 VRB 5 7 30.08 1019 9 14 0.01 0.25
1:22 am 01:22 Cloudy with Rain 55 12.8 54 12.2 96 96 E 3 6 30.07 1018 5 8 0.02 0.51
1:30 am 01:30 Cloudy with Light Rain 55 12.8 54 12.2 96 96 VRB 3 6 30.07 1018 4 6 0.04 1.02
1:53 am 01:53 Cloudy with Rain 55 12.8 54 12.2 96 96 VRB 3 6 30.05 1018 3 5 0.11 2.79
2:06 am 02:06 Cloudy with Light Rain 55 12.8 54 12.2 96 96 VRB 3 6 30.06 1018 3 5 0.03 0.76
2:20 am 02:20 Cloudy with Light Rain 55 12.8 54 12.2 96 96 VRB 5 7 30.06 1018 3 5 0.05 1.27
2:37 am 02:37 Cloudy with Rain 55 12.8 54 12.2 96 96 VRB 3 6 30.06 1018 3 4 0.09 2.29
2:49 am 02:49 Cloudy with Rain 55 13 54 12 94 94 ESE 8 13 30.06 1018 3 5 0.13 3.30
2:53 am 02:53 Cloudy with Rain 55 12.8 54 12.2 96 96 E 8 13 30.04 1017 3 4 0.14 3.56
3:16 am 03:16 Cloudy with Light Rain 55 12.8 54 12.2 96 96 E 5 7 30.04 1017 4 6 0.09 2.29
3:40 am 03:40 Cloudy with Rain 55 12.8 54 12.2 96 96 undefined N/A 30.04 1017 3 4 0.13 3.30
3:48 am 03:48 Cloudy with Light Rain 55 13 54 12 94 94 VRB 7 11 30.05 1018 4 6 0.15 3.81
3:53 am 03:53 Cloudy with Rain 54 12.2 53 11.7 97 97 VRB 7 11 30.03 1017 3 5 0.18 4.57
3:59 am 03:59 Cloudy with Rain 54 12.2 53 11.7 97 97 VRB 7 11 30.04 1017 3 4 0.02 0.51
4:07 am 04:07 Cloudy with Light Rain 54 12.2 54 12.2 100 100 VRB 5 7 30.04 1017 4 6 0.03 0.76
4:25 am 04:25 Cloudy with Rain 54 12.2 54 12.2 100 100 VRB 5 7 30.03 1017 3 5 0.07 1.78
4:53 am 04:53 Cloudy with Rain 54 12.2 53 11.7 97 97 VRB 6 9 30.01 1016 3 4 0.12 3.05
5:38 am 05:38 Cloudy with Light Rain 54 12.2 53 11.7 97 97 undefined N/A 30.02 1017 4 6 0.12 3.05
5:53 am 05:53 Cloudy with Light Rain 53 11.7 53 11.7 100 100 VRB 5 7 30.02 1017 4 6 0.13 3.30
6:53 am 06:53 Cloudy 53 11.7 53 11.7 100 100 E 7 11 30.02 1017 10 16 0.00 0.00
6:59 am 06:59 Cloudy 53 11.7 52 11.1 96 96 E 5 7 30.02 1017 10 16 0.00 0.00
7:53 am 07:53 Cloudy with Light Rain 53 11.7 52 11.1 96 96 ENE 5 7 30.03 1017 6 10 0.03 0.76
8:53 am 08:53 Cloudy with Light Rain 53 11.7 52 11.1 96 96 ENE 7 11 30.03 1017 4 6 0.00 0.00
9:53 am 09:53 Cloudy with Light Rain 54 12.2 52 11.1 93 93 ENE 10 17 30.04 1017 4 6 0.00 0.00
10:53 am 10:53 Cloudy 54 12.2 53 11.7 97 97 ENE 6 9 30.04 1017 8 13 0.01 0.25
11:53 am 11:53 Cloudy 56 13.3 54 12.2 93 93 ENE 8 13 30.04 1017 10 16 0.00 0.00
12:53 pm 12:53 Cloudy with Mist and Fog 55 12.8 53 11.7 93 93 VRB 6 9 30.04 1017 6 10 0.00 0.00
1:53 pm 13:53 Cloudy 57 13.9 54 12.2 90 90 VRB 5 7 30.00 1016 10 16 0.00 0.00
2:53 pm 14:53 Cloudy 60 15.6 54 12.2 80 80 ENE 9 15 29.96 1015 10 16 0.00 0.00
3:02 pm 15:02 Cloudy 59 15 54 12.2 83 83 VRB 3 6 29.97 1015 10 16 0.00 0.00
3:50 pm 15:50 Cloudy 57 14 54 12 88 88 VRB 3 6 29.96 1014 10 16 0.00 0.00
3:53 pm 15:53 Cloudy 58 14.4 55 12.8 90 90 undefined N/A 29.95 1014 10 16 0.00 0.00
4:53 pm 16:53 Cloudy 58 14.4 53 11.7 84 84 VRB 7 11 29.93 1014 10 16 0.00 0.00
5:53 pm 17:53 Cloudy 57 13.9 53 11.7 87 87 VRB 5 7 29.93 1014 10 16 0.00 0.00
6:51 pm 18:51 Cloudy with Nearby Thunderstorms 57 14 54 12 88 88 S 3 6 29.97 1015 8 13 0.00 0.00
6:53 pm 18:53 Cloudy with Nearby Thunderstorms 57 13.9 53 11.7 87 87 S 5 7 29.97 1015 6 10 0.01 0.25
6:57 pm 18:57 Cloudy with Nearby Thunderstorms 56 13.3 54 12.2 93 93 SSW 7 11 29.98 1015 2 2 0.08 2.03
7:14 pm 19:14 Cloudy with Heavy Rain 53 11.7 50 10 89 89 VRB 3 6 29.98 1015 2 3 0.27 6.86
7:34 pm 19:34 Cloudy with Rain 52 11.1 50 10 93 93 N 5 7 29.98 1015 3 5 0.42 10.67
7:53 pm 19:53 Cloudy with Light Rain 52 11.1 50 10 93 93 N 6 9 29.96 1014 6 10 0.49 12.45
8:53 pm 20:53 Clear 51 10.6 51 10.6 100 100 NNE 5 7 29.96 1014 9 14 0.00 0.00
9:53 pm 21:53 Clear 51 10.6 50 10 96 96 NE 3 6 29.96 1014 10 16 0.00 0.00
10:02 pm 22:02 Partly Cloudy 51 10.6 50 10 96 96 VRB 3 6 29.97 1015 10 16 0.00 0.00
10:10 pm 22:10 Mostly Cloudy 52 11.1 51 10.6 97 97 NNE 5 7 29.97 1015 10 16 0.00 0.00
10:40 pm 22:40 Mostly Cloudy 52 11.1 51 10.6 97 97 Calm 29.97 1015 9 14 0.00 0.00
10:53 pm 22:53 Mostly Cloudy 53 11.7 52 11.1 96 96 VRB 3 6 29.96 1015 8 13 0.00 0.00
11:39 pm 23:39 Cloudy 54 12.2 53 11.7 97 97 ENE 3 6 29.96 1015 8 13 0.00 0.00
11:53 pm 23:53 Cloudy 54 12.2 53 11.7 97 97 undefined N/A 29.96 1015 7 11 0.00 0.00

Powered by AerisWeather